sat.trackr.live / text

‹ back to catalog

STARLINK-33658

NORAD 63384 · 2025-063X

PAYLOAD ACTIVE UNKNOWN

§ Identity

Operator
Country
US
Launch date
2025-03-26
Launch site
AFWTR
Launch vehicle
Mass (kg)
RCS (m²)

Purposes: comms

External: N2YO · Heavens-Above · Gunter

§ Orbital elements

Epoch: 2026-05-25T03:08:25.490976Z

Period
93.79 min
Inclination
53.1602°
Eccentricity
0.0001758
Mean motion
15.35407321 rev/d
Perigee alt
458.5 km
Apogee alt
460.9 km
Semi-major
6,837.8 km
B*
-4.5821e-4
RAAN
55.2157°
Arg perigee
74.2712°
Mean anomaly
285.8485°
Rev number
6,649

§ Raw data

STARLINK-336581 63384U 25063X   26145.13085059 -.00016334  00000+0 -45821-3 0  99902 63384  53.1602  55.2157 0001758  74.2712 285.8485 15.35407321 66498

JSON: /api/v1/satellites/63384 · /tle

For live sub-satellite position, see the globe view (requires WebGL).

§ Visibility from observer

Set your observer location to see the next 7 days of passes ≥ 10°. The values pass through the URL so the page stays shareable.

No JS? Fill the form by hand. The geolocation button needs JavaScript.